�N����,����,�~����,�C��,���x,�C��,����,���ϕ���,�ő�u�ԕ���,�ő厞����,���˗�,�I�_���x,�n�����x,�ő啗���N��,DTYPE
"17/04/18","00:10",1.4,17.7,97.3,990.1,168.6,3.4,9.3,180.6,0.00,17.3,15.3,"00:03:22",1
"17/04/18","00:20",0.6,17.7,96.2,990.4,148.9,3.2,7.5,178.4,0.00,17.1,15.0,"00:11:36",1
"17/04/18","00:30",0.6,17.5,95.8,988.0,130.9,3.2,6.4,137.9,0.00,16.9,15.2,"00:29:36",1
"17/04/18","00:40",0.4,17.5,96.1,989.4,75.8,2.2,8.2,110.9,0.00,16.9,15.0,"00:30:26",1
"17/04/18","00:50",0.2,17.6,96.3,989.6,77.5,1.5,2.9,37.2,0.00,17.0,15.2,"00:40:32",1
"17/04/18","01:00",0.0,17.8,96.3,989.2,94.5,1.3,2.9,49.5,0.00,17.2,15.1,"00:52:16",1
"17/04/18","01:10",0.0,18.0,96.1,988.5,138.3,1.1,2.2,325.6,0.00,17.4,15.2,"01:01:12",1
"17/04/18","01:20",0.0,18.0,96.0,988.2,112.1,1.2,3.6,119.5,0.00,17.4,15.2,"01:19:36",1
"17/04/18","01:30",0.0,18.1,95.8,987.8,112.4,1.8,4.0,115.4,0.00,17.5,15.1,"01:29:28",1
"17/04/18","01:40",0.0,18.1,95.3,987.8,145.2,1.1,2.4,98.4,0.00,17.4,15.1,"01:31:20",1
"17/04/18","01:50",0.0,17.9,95.2,987.8,285.2,1.3,2.5,305.9,0.00,17.2,15.3,"01:47:52",1
"17/04/18","02:00",0.2,17.7,95.5,987.5,307.9,1.1,1.9,314.4,0.00,17.0,15.1,"01:52:08",1
"17/04/18","02:10",1.0,17.7,95.7,987.8,295.1,1.1,2.0,321.5,0.00,17.0,15.1,"02:09:52",1
"17/04/18","02:20",2.4,17.6,96.0,987.3,205.5,0.7,1.8,330.6,0.00,17.0,15.2,"02:10:08",1
"17/04/18","02:30",1.0,17.6,96.1,987.8,302.8,0.7,1.8,295.2,0.00,17.0,15.2,"02:29:12",1
"17/04/18","02:40",0.6,17.5,96.3,987.8,295.0,1.0,1.8,300.4,0.00,16.9,15.2,"02:30:32",1
"17/04/18","02:50",0.0,17.5,96.4,987.3,300.7,1.2,2.0,314.6,0.00,17.0,15.1,"02:47:04",1
"17/04/18","03:00",0.2,17.5,96.5,987.3,285.6,0.8,1.8,330.8,0.00,17.0,15.3,"02:56:24",1
"17/04/18","03:10",0.0,17.5,96.8,987.5,307.9,0.8,1.4,315.4,0.00,17.0,15.1,"03:09:48",1
"17/04/18","03:20",0.0,17.7,96.8,987.5,317.2,1.0,1.9,321.9,0.00,17.2,15.3,"03:17:04",1
"17/04/18","03:30",0.0,17.6,96.7,987.5,279.9,0.8,1.7,272.2,0.00,17.1,15.1,"03:29:36",1
"17/04/18","03:40",0.0,17.5,96.9,987.5,292.2,1.2,2.2,313.5,0.00,17.0,15.2,"03:32:24",1
"17/04/18","03:50",0.0,17.9,97.0,987.8,325.5,2.5,4.8,339.6,0.00,17.5,15.2,"03:47:04",1
"17/04/18","04:00",0.0,18.1,96.7,988.2,321.4,2.0,3.6,331.2,0.00,17.6,15.3,"03:56:56",1
"17/04/18","04:10",0.0,18.1,96.4,988.0,304.2,1.2,2.0,338.1,0.00,17.6,15.0,"04:00:40",1
"17/04/18","04:20",0.0,18.2,96.3,988.5,275.8,1.2,2.2,317.6,0.00,17.6,15.2,"04:10:08",1
"17/04/18","04:30",0.0,18.2,95.8,988.7,15.0,0.8,1.9,108.3,0.00,17.6,15.1,"04:20:02",1
"17/04/18","04:40",0.0,17.9,95.9,988.7,112.6,1.1,2.1,105.9,0.00,17.3,15.4,"04:30:08",1
"17/04/18","04:50",0.0,17.7,95.9,988.9,159.2,0.6,1.8,121.5,0.00,17.1,15.1,"04:41:20",1
"17/04/18","05:00",0.0,17.6,96.1,988.7,316.9,0.5,1.4,317.1,0.00,17.0,15.2,"04:59:52",1
"17/04/18","05:10",0.0,17.5,96.3,989.6,327.9,1.3,1.8,331.0,0.00,16.9,15.2,"05:00:40",1
"17/04/18","05:20",0.0,17.5,96.4,989.6,318.5,1.3,2.4,331.4,0.00,17.0,15.2,"05:15:44",1
"17/04/18","05:30",0.0,17.4,96.0,989.6,312.4,1.2,4.0,323.0,0.00,16.8,15.2,"05:28:00",1
"17/04/18","05:40",0.0,17.4,94.6,990.1,328.3,2.3,5.1,323.9,0.00,16.6,15.1,"05:31:20",1
"17/04/18","05:50",0.0,17.3,92.9,990.4,307.3,1.2,2.2,340.6,0.00,16.2,15.1,"05:40:02",1
"17/04/18","06:00",0.0,17.0,92.7,991.1,328.5,1.2,2.2,347.1,0.00,15.8,15.1,"05:50:56",1
"17/04/18","06:10",0.0,16.8,92.5,991.1,284.2,1.1,2.6,317.4,0.00,15.6,15.1,"06:09:36",1
"17/04/18","06:20",0.0,16.8,91.8,991.3,303.3,1.7,3.5,339.5,0.01,15.5,15.2,"06:18:56",1
"17/04/18","06:30",0.0,16.9,88.7,992.0,323.8,2.3,4.1,326.1,0.02,15.1,15.1,"06:28:48",1
"17/04/18","06:40",0.0,17.1,84.7,991.5,325.4,3.2,5.7,333.6,0.04,14.5,15.1,"06:38:56",1
"17/04/18","06:50",0.0,17.7,78.4,992.0,327.3,4.0,7.5,322.5,0.06,13.9,15.2,"06:47:52",1
"17/04/18","07:00",0.0,17.8,75.8,992.0,324.0,4.7,7.9,328.4,0.07,13.5,15.0,"06:57:36",1
"17/04/18","07:10",0.0,17.9,72.2,992.7,330.3,6.4,10.3,328.9,0.09,12.9,15.4,"07:08:56",1
"17/04/18","07:20",0.0,18.0,69.8,993.0,329.4,5.7,11.0,330.9,0.12,12.4,15.1,"07:19:52",1
"17/04/18","07:30",0.0,18.1,69.8,993.4,335.3,5.7,8.6,335.0,0.15,12.5,15.2,"07:29:20",1
"17/04/18","07:40",0.0,18.3,68.1,993.4,333.2,6.8,11.2,330.7,0.20,12.4,15.0,"07:31:36",1
"17/04/18","07:50",0.0,17.9,67.6,993.7,334.9,6.9,11.0,332.4,0.11,11.9,15.0,"07:41:52",1
"17/04/18","08:00",0.0,17.7,69.0,993.4,336.2,4.9,8.5,331.4,0.09,12.0,15.2,"07:51:52",1
"17/04/18","08:10",0.0,17.6,67.5,993.7,334.1,5.7,10.2,338.8,0.07,11.6,15.0,"08:07:04",1
"17/04/18","08:20",0.0,17.5,67.3,993.9,331.1,5.2,9.6,341.7,0.09,11.4,15.1,"08:10:16",1
"17/04/18","08:30",0.0,17.5,67.7,993.7,318.3,4.0,7.9,327.4,0.08,11.5,15.2,"08:25:20",1
"17/04/18","08:40",0.0,17.8,66.3,993.2,321.2,2.7,6.2,347.2,0.13,11.5,15.1,"08:30:48",1
"17/04/18","08:50",0.0,17.8,67.6,993.4,303.5,2.8,5.1,328.4,0.10,11.8,15.2,"08:45:28",1
"17/04/18","09:00",0.0,18.3,64.6,993.7,322.9,3.5,6.8,330.4,0.16,11.6,15.0,"08:59:04",1
"17/04/18","09:10",0.0,18.2,64.9,993.2,320.6,3.7,6.4,327.5,0.14,11.5,15.1,"09:03:44",1
"17/04/18","09:20",0.0,18.5,64.4,993.4,320.1,3.2,5.4,333.6,0.17,11.7,15.2,"09:10:56",1
"17/04/18","09:30",0.0,18.6,64.3,993.9,314.9,2.2,5.6,349.0,0.12,11.8,15.2,"09:23:20",1
"17/04/18","09:40",0.0,18.2,65.0,994.1,309.9,2.7,4.9,341.5,0.09,11.6,15.1,"09:39:28",1
"17/04/18","09:50",0.0,19.9,60.6,993.9,323.2,2.2,4.8,343.1,0.46,12.1,15.1,"09:41:20",1
"17/04/18","10:00",0.0,19.4,60.1,993.7,317.1,2.7,5.0,342.9,0.46,11.5,15.1,"09:53:28",1
"17/04/18","10:10",0.0,19.2,60.6,993.9,311.2,2.0,5.1,341.6,0.24,11.4,15.3,"10:04:32",1
"17/04/18","10:20",0.0,19.1,60.4,993.9,270.1,2.5,4.4,306.6,0.31,11.3,15.4,"10:15:52",1
"17/04/18","10:30",0.0,19.3,60.6,993.7,271.9,2.7,5.4,298.4,0.26,11.5,15.4,"10:27:20",1
"17/04/18","10:40",0.0,19.3,61.6,993.9,281.8,2.5,6.0,326.0,0.25,11.8,15.5,"10:38:40",1
"17/04/18","10:50",0.0,18.9,62.1,993.9,291.4,2.6,4.4,314.6,0.18,11.5,15.7,"10:40:48",1
"17/04/18","11:00",0.0,18.7,62.0,993.9,324.5,2.6,6.0,344.7,0.12,11.3,15.4,"10:52:56",1
"17/04/18","11:10",0.0,18.8,62.2,993.7,310.1,1.1,2.4,344.0,0.06,11.5,16.0,"11:05:44",1
"17/04/18","11:20",0.0,18.4,63.4,993.9,347.0,2.2,4.4,339.7,0.06,11.4,15.9,"11:13:20",1
"17/04/18","11:30",0.0,18.4,63.8,993.4,320.7,2.7,4.8,335.4,0.13,11.5,15.8,"11:24:48",1
"17/04/18","11:40",0.0,19.3,63.2,993.7,339.3,2.1,3.9,348.5,0.32,12.2,15.8,"11:38:48",1
"17/04/18","11:50",0.0,19.3,63.3,993.7,340.1,2.8,4.9,348.5,0.32,12.2,15.9,"11:48:48",1
"17/04/18","12:00",0.0,19.7,62.6,993.4,348.6,2.5,5.1,323.6,0.35,12.4,15.9,"11:57:52",1
"17/04/18","12:10",0.0,19.4,62.2,992.7,344.3,3.2,6.3,346.4,0.33,12.0,16.0,"12:00:02",1
"17/04/18","12:20",0.0,19.6,62.3,993.0,347.9,3.4,7.2,342.8,0.42,12.2,16.1,"12:10:02",1
"17/04/18","12:30",0.0,19.8,61.6,993.0,335.3,3.1,5.5,326.2,0.32,12.3,16.0,"12:29:28",1
"17/04/18","12:40",0.0,19.6,62.5,993.0,332.0,2.6,4.0,326.0,0.23,12.3,16.0,"12:32:08",1
"17/04/18","12:50",0.0,20.6,60.2,992.7,335.2,2.7,4.3,331.1,0.41,12.7,16.2,"12:46:56",1
"17/04/18","13:00",0.0,21.4,54.3,992.7,343.4,2.2,4.9,348.0,0.68,11.8,16.2,"12:53:28",1
"17/04/18","13:10",0.0,20.9,58.5,992.5,335.6,2.6,6.2,345.6,0.41,12.5,16.6,"13:04:24",1
"17/04/18","13:20",0.0,20.4,56.6,992.5,277.1,2.8,4.9,316.0,0.32,11.5,16.8,"13:19:36",1
"17/04/18","13:30",0.0,20.9,56.0,992.2,284.1,2.7,4.9,284.8,0.44,11.8,16.8,"13:28:16",1
"17/04/18","13:40",0.0,21.9,53.4,992.2,269.5,2.1,4.5,235.4,0.73,12.1,17.0,"13:31:12",1
"17/04/18","13:50",0.0,22.2,53.5,992.2,256.9,2.7,5.2,230.6,0.69,12.4,16.9,"13:40:16",1
"17/04/18","14:00",0.0,22.2,53.1,992.2,294.7,2.7,7.4,312.5,0.68,12.2,17.6,"13:58:48",1
"17/04/18","14:10",0.0,21.4,57.2,992.2,320.7,2.8,6.3,2.7,0.47,12.6,17.4,"14:07:52",1
"17/04/18","14:20",0.0,20.4,56.6,992.2,326.6,3.6,7.1,338.8,0.26,11.5,17.6,"14:14:00",1
"17/04/18","14:30",0.0,20.3,59.5,992.2,326.8,2.7,5.1,340.6,0.26,12.2,17.5,"14:24:00",1
"17/04/18","14:40",0.0,20.1,57.7,992.2,317.1,3.0,5.2,339.9,0.19,11.5,17.7,"14:35:52",1
"17/04/18","14:50",0.0,20.3,58.3,992.0,318.9,2.6,5.2,357.3,0.20,11.9,17.9,"14:46:08",1
"17/04/18","15:00",0.0,21.8,56.9,992.0,297.1,2.3,7.0,330.9,0.51,12.9,17.7,"14:53:04",1
"17/04/18","15:10",0.0,22.1,51.9,992.0,284.8,2.5,5.1,332.7,0.55,11.8,17.9,"15:01:44",1
"17/04/18","15:20",0.0,20.8,55.6,992.0,289.5,2.8,5.1,309.7,0.29,11.6,17.7,"15:11:12",1
"17/04/18","15:30",0.0,20.2,56.1,992.5,300.8,2.2,3.6,336.4,0.11,11.2,17.9,"15:25:20",1
"17/04/18","15:40",0.0,20.4,56.2,992.2,276.0,2.3,4.9,321.6,0.12,11.4,17.9,"15:38:48",1
"17/04/18","15:50",0.0,20.1,55.2,992.2,306.2,3.1,5.8,326.0,0.13,10.9,17.9,"15:47:44",1
"17/04/18","16:00",0.0,20.1,56.3,992.2,301.9,2.7,4.7,327.6,0.12,11.2,18.0,"15:56:56",1
"17/04/18","16:10",0.0,20.4,54.6,992.2,325.4,2.8,5.0,339.6,0.15,11.0,17.8,"16:07:12",1
"17/04/18","16:20",0.0,20.3,56.2,992.2,322.1,3.7,6.7,332.9,0.19,11.3,17.6,"16:17:04",1
"17/04/18","16:30",0.0,20.2,54.2,992.7,326.9,3.7,6.7,322.7,0.13,10.7,17.7,"16:22:16",1
"17/04/18","16:40",0.0,20.1,53.3,992.5,305.8,2.3,5.0,342.7,0.08,10.4,17.5,"16:37:52",1
"17/04/18","16:50",0.0,20.0,54.3,992.5,336.4,2.3,4.3,346.1,0.09,10.5,17.6,"16:49:20",1
"17/04/18","17:00",0.0,20.4,56.4,992.5,332.2,2.2,4.3,336.3,0.12,11.5,17.6,"16:56:16",1
"17/04/18","17:10",0.0,20.8,55.9,992.7,347.5,1.8,3.3,336.9,0.15,11.7,17.6,"17:00:16",1
"17/04/18","17:20",0.0,21.0,52.5,992.7,324.2,2.6,5.7,340.4,0.15,11.0,17.5,"17:16:16",1
"17/04/18","17:30",0.0,20.4,54.2,992.7,278.6,2.0,3.6,312.6,0.07,10.9,17.3,"17:21:52",1
"17/04/18","17:40",0.0,19.8,56.1,992.5,257.9,1.8,2.9,239.4,0.05,10.8,17.2,"17:30:56",1
"17/04/18","17:50",0.0,20.1,54.3,992.7,294.2,1.8,3.1,342.5,0.07,10.6,17.4,"17:45:36",1
"17/04/18","18:00",0.0,20.1,56.2,992.7,300.0,2.0,3.9,322.4,0.05,11.2,17.2,"17:59:44",1
"17/04/18","18:10",0.0,19.3,59.2,993.0,336.4,2.5,3.7,338.3,0.02,11.2,17.3,"18:04:24",1
"17/04/18","18:20",0.0,18.7,62.2,993.2,339.5,1.7,3.7,337.8,0.00,11.4,17.1,"18:11:04",1
"17/04/18","18:30",0.0,18.2,64.7,993.4,354.7,1.0,1.9,335.1,0.00,11.5,17.0,"18:21:04",1
"17/04/18","18:40",0.0,17.8,64.6,993.9,40.5,0.6,1.3,338.9,0.00,11.1,17.1,"18:36:56",1
"17/04/18","18:50",0.0,17.4,68.3,993.4,197.5,1.0,2.5,148.9,0.00,11.5,16.8,"18:47:36",1
"17/04/18","19:00",0.0,17.0,70.8,993.9,207.7,1.2,2.5,232.2,0.00,11.7,16.8,"18:56:40",1
"17/04/18","19:10",0.0,16.7,70.8,994.1,205.0,1.6,2.6,206.9,0.00,11.4,16.8,"19:08:24",1
"17/04/18","19:20",0.0,16.5,71.5,994.1,170.6,1.1,2.1,173.9,0.00,11.4,16.7,"19:10:40",1
"17/04/18","19:30",0.0,16.1,72.4,994.4,110.9,0.6,1.6,115.0,0.00,11.2,16.6,"19:20:40",1
"17/04/18","19:40",0.0,15.9,73.7,994.4,107.1,0.7,1.7,115.2,0.00,11.3,16.5,"19:38:56",1
"17/04/18","19:50",0.0,15.7,74.6,994.8,108.4,0.8,1.9,106.9,0.00,11.2,16.4,"19:44:08",1
"17/04/18","20:00",0.0,15.4,75.7,994.8,127.5,0.5,1.2,127.5,0.00,11.2,16.4,"19:54:16",1
"17/04/18","20:10",0.0,15.1,78.7,994.8,316.3,1.0,1.6,318.0,0.00,11.5,16.4,"20:08:40",1
"17/04/18","20:20",0.0,14.7,80.6,994.8,318.6,0.7,1.6,302.2,0.00,11.4,16.3,"20:19:36",1
"17/04/18","20:30",0.0,14.1,82.1,995.1,290.0,0.6,1.3,308.4,0.00,11.1,16.2,"20:20:32",1
"17/04/18","20:40",0.0,13.8,84.4,994.8,317.3,1.2,1.6,319.7,0.00,11.3,16.0,"20:38:40",1
"17/04/18","20:50",0.0,13.6,85.7,995.1,333.7,1.3,2.1,332.5,0.00,11.3,16.1,"20:44:40",1
"17/04/18","21:00",0.0,13.2,86.9,995.3,308.8,1.0,1.3,307.0,0.00,11.1,15.8,"20:54:40",1
"17/04/18","21:10",0.0,13.1,88.0,995.3,321.9,1.5,2.2,322.0,0.00,11.2,15.8,"21:05:44",1
"17/04/18","21:20",0.0,12.9,88.5,995.1,299.3,1.3,2.4,318.5,0.00,11.1,15.6,"21:11:28",1
"17/04/18","21:30",0.0,12.7,89.2,995.3,287.8,1.1,1.9,315.5,0.00,11.0,15.7,"21:22:24",1
"17/04/18","21:40",0.0,12.5,89.7,995.6,289.1,1.2,1.7,265.7,0.00,10.9,15.6,"21:34:32",1
"17/04/18","21:50",0.0,12.4,90.4,995.1,294.0,1.3,2.1,325.2,0.00,10.9,15.5,"21:49:52",1
"17/04/18","22:00",0.0,12.4,90.6,995.1,317.6,1.5,2.4,335.9,0.00,10.9,15.5,"21:50:32",1
"17/04/18","22:10",0.0,12.1,91.0,995.3,299.3,1.2,1.4,303.4,0.00,10.7,15.3,"22:01:28",1
"17/04/18","22:20",0.0,11.9,91.6,995.3,297.8,1.2,1.7,303.7,0.00,10.6,15.2,"22:12:32",1
"17/04/18","22:30",0.0,11.8,91.8,995.1,294.4,0.7,1.3,310.2,0.00,10.6,15.0,"22:23:36",1
"17/04/18","22:40",0.0,11.5,92.3,994.8,314.7,1.7,2.7,325.9,0.00,10.3,15.2,"22:34:16",1
"17/04/18","22:50",0.0,11.4,93.1,994.8,323.7,1.6,2.2,327.9,0.00,10.4,14.9,"22:46:40",1
"17/04/18","23:00",0.0,11.2,93.4,994.8,290.4,1.1,2.0,320.5,0.00,10.2,15.0,"22:50:02",1
"17/04/18","23:10",0.0,11.1,93.8,994.8,292.3,0.8,2.0,312.8,0.00,10.2,14.9,"23:00:40",1
"17/04/18","23:20",0.0,11.0,94.5,994.8,294.1,1.6,2.5,327.2,0.00,10.2,14.8,"23:19:04",1
"17/04/18","23:30",0.0,11.1,94.6,994.8,290.9,1.5,2.0,319.3,0.00,10.3,14.9,"23:26:08",1
"17/04/18","23:40",0.0,11.0,94.7,994.8,297.7,1.3,1.8,314.4,0.00,10.2,14.7,"23:38:40",1
"17/04/18","23:50",0.0,11.0,94.9,995.3,291.4,1.3,1.8,333.3,0.00,10.3,14.6,"23:40:24",1
"17/04/18","24:00",0.0,11.0,94.9,994.8,292.4,1.7,2.2,312.4,0.00,10.3,14.7,"23:54:24",1
